Powrót do katalogu

STARLINK-32840

AktywnyŁącznośćVLEO
NORAD 63363·PAYLOAD·🇺🇸 United States

Wystrzelony Mar 26, 2025 z Vandenberg Space Force Base

Loading…

Następne Przeloty (najbliższe 24 godziny)

TLE

ŚwieżeSource: CelesTrak SupGP

Epoka: Sep 15, 2026, 03:44 UTC

1 63363C 25063A   26258.15604167 -.00047167  00000+0 -13936-2 0  2588
2 63363  53.1579 246.3407 0001327  85.6247 265.5932 15.34414214    16

Śledź STARLINK-32840 w czasie rzeczywistym z AllMySat

Download on the App Store